Powrót do katalogu

THORAD AGENA D DEB

AktywnyPO
NORAD 5000·DEBRIS·🇺🇸 United States

Wystrzelony Apr 8, 1970 z Vandenberg Space Force Base

Loading…

Następne Przeloty

TLE

Source: Space-Track
1  5000U 70025HW  26224.92449918  .00000182  00000-0  67345-3 0  9990
2  5000  99.7840 105.9324 0487106 196.2926 177.4605 12.70688204598874

Śledź THORAD AGENA D DEB w czasie rzeczywistym z AllMySat

Download on the App Store